Temperature
20 19 19 20 24 27 30 32 32 32 32 31 31 31 31 31 31 29 23 23 22 22 22 22 22 21 21 21 20 20 20 20 20 20 20 20 20 20 20 20 19 19 19 19 19 19 19 19 19
20 19 20 23 26 31 31 32 32 32 32 31 31 30 31 30 27 25 23 22 22 22 21 22 22 21 21 21 21 20 20 20 20 20 20 20 20 20 20 20 20 20 19 19 19 19 19 19 19
19 20 23 27 29 31 31 32 32 32 31 31 31 30 30 29 25 24 23 22 22 21 21 22 22 22 21 21 21 21 21 21 20 20 20 20 20 20 20 20 20 20 19 19 19 19 19 19 19
20 22 25 28 31 32 32 32 32 32 31 30 31 31 29 25 24 23 22 22 22 21 21 22 22 22 21 21 21 21 21 21 21 21 21 20 20 20 20 20 20 20 20 20 20 19 19 19 19
22 26 29 31 32 32 33 32 32 32 32 31 31 31 29 24 23 23 22 22 22 22 21 21 22 22 21 21 21 21 21 21 21 21 20 20 20 20 20 20 20 20 19 19 19 19 19 19 19
25 28 31 32 32 32 33 32 32 32 32 31 31 31 28 24 23 23 23 22 22 22 21 21 22 21 21 21 21 21 21 21 21 21 20 20 20 20 20 20 19 19 19 19 19 19 19 19 19
27 30 31 32 32 32 32 32 32 32 32 32 31 31 28 24 23 23 22 22 22 22 21 20 20 21 21 21 21 21 21 21 21 21 20 20 20 20 20 19 19 19 19 19 19 19 19 19 19
26 30 31 32 32 32 32 32 32 32 31 30 30 31 29 25 23 22 22 22 21 21 20 20 19 19 20 20 20 20 20 20 20 20 20 20 20 20 20 19 19 19 19 19 19 19 19 19 18
25 29 31 32 32 32 32 32 32 31 30 29 29 29 28 24 23 22 21 21 20 20 20 20 19 19 19 19 19 20 20 20 20 20 20 20 19 18 19 19 19 19 19 19 19 18 18 18 18
27 30 31 32 32 32 32 32 32 31 32 30 29 26 24 24 23 22 21 21 20 20 19 19 19 19 19 19 18 18 18 19 19 18 18 18 18 18 18 18 19 19 19 19 18 18 18 18 17
29 30 31 31 31 31 32 32 31 31 32 30 29 27 24 24 23 22 22 21 20 20 19 19 19 19 19 18 18 18 18 18 18 18 18 18 18 18 18 18 18 18 18 18 18 18 18 17 17
29 30 30 30 30 30 31 31 30 29 28 26 26 26 25 24 24 23 22 21 20 20 19 19 19 19 19 19 18 18 18 18 18 18 18 18 18 18 18 18 18 18 18 18 18 18 17 17 17
29 30 29 29 29 30 29 30 29 27 25 25 25 24 24 24 23 23 22 21 20 19 19 19 19 19 19 19 19 18 18 19 19 18 18 18 18 18 18 18 18 18 18 18 18 17 17 17 17
29 29 29 29 29 29 29 29 28 25 24 24 24 24 23 23 22 22 21 20 20 20 20 20 20 19 19 19 19 18 18 18 18 18 18 18 18 18 18 18 18 18 18 18 17 17 17 17 17
28 29 30 30 29 29 29 28 25 23 23 23 22 21 21 21 20 20 20 20 20 19 19 19 19 19 19 19 19 18 18 18 18 17 17 18 18 18 18 18 18 17 17 17 17 17 17 17 17
29 29 30 29 29 29 29 28 24 22 23 22 21 20 19 19 19 19 19 19 19 19 19 19 18 18 18 18 18 18 18 17 17 17 17 17 17 17 17 17 17 17 17 17 17 17 17 17 17
29 30 29 29 28 29 29 26 23 22 22 21 20 20 19 18 17 17 18 18 18 18 18 18 18 18 18 18 18 17 17 17 17 16 16 16 16 17 17 17 17 17 17 17 17 17 17 17 17
29 30 29 28 27 28 27 24 22 21 21 21 20 19 18 17 16 16 17 17 17 17 18 17 17 17 17 17 17 17 17 17 16 16 16 16 16 16 17 17 17 17 17 17 17 16 16 16 16
29 29 29 27 26 26 25 24 22 21 21 20 19 19 17 17 16 16 16 16 16 17 17 17 17 17 17 17 16 16 16 16 16 16 16 16 16 16 16 16 17 17 16 17 16 16 16 16 16
29 28 28 27 26 26 25 23 22 21 20 19 19 18 18 17 16 16 16 16 16 16 17 17 17 17 17 17 16 16 16 16 15 15 15 15 16 16 16 16 16 16 16 16 16 16 16 16 16
29 29 28 27 26 26 26 24 23 22 20 19 18 18 17 17 17 16 16 16 16 17 17 17 17 17 17 17 16 16 15 15 15 15 15 15 16 16 15 16 16 16 16 16 16 16 16 16 16
28 29 28 27 27 27 27 26 24 23 22 21 19 18 18 17 17 17 16 16 16 16 16 17 17 17 16 16 15 15 15 15 15 15 15 15 15 15 15 16 16 16 16 16 16 16 15 15 16
28 28 28 28 28 28 27 27 25 24 23 22 21 19 18 17 17 16 16 16 16 16 16 16 16 16 16 16 16 15 15 15 15 14 15 15 15 15 15 15 15 15 15 15 15 15 15 15 16
28 28 27 28 28 27 27 26 25 25 24 23 21 19 18 18 17 17 16 16 16 16 16 15 15 15 15 15 15 15 15 15 14 14 14 14 14 14 14 14 14 15 15 15 15 15 15 15 15
28 27 27 26 26 26 26 26 24 23 23 22 21 20 19 18 18 17 17 16 16 16 15 15 15 15 14 14 14 14 14 14 14 14 14 13 13 13 13 13 13 13 14 14 14 14 14 14 15
27 27 26 25 26 26 26 25 23 22 21 21 20 20 19 19 18 17 17 17 16 16 15 15 14 14 14 14 14 13 13 13 13 13 13 13 13 13 12 12 12 12 13 13 13 13 14 14 14
27 27 27 27 26 26 26 24 22 22 22 21 20 20 19 19 18 18 17 17 16 16 15 15 14 13 13 13 13 13 13 13 13 12 12 12 12 12 12 12 12 12 12 12 12 12 12 13 13
27 27 27 26 25 25 25 25 23 22 22 22 21 21 20 19 18 18 17 17 16 15 15 14 14 13 13 13 12 13 12 12 12 12 12 12 12 11 11 11 11 11 11 11 11 11 11 11 12
26 26 26 26 25 25 24 24 23 22 22 22 21 20 19 19 18 18 17 16 15 15 14 14 13 13 13 12 12 12 12 12 11 11 11 11 11 11 11 11 11 11 10 10 10 10 10 10 11
26 25 25 25 24 25 25 24 22 22 21 21 20 20 19 18 17 17 16 15 15 14 14 13 13 12 12 12 12 11 11 11 11 11 11 11 11 11 10 10 10 10 10 10 10 10 10 10 10
Wind_Speed
19 15 8 5 5 5 1 4 4 5 3 3 1 2 4 5 5 4 4 13 18 20 22 23 20 19 18 17 16 16 15 15 15 15 14 14 13 12 11 11 10 9 8 8 8 8 8 9 9
16 12 7 5 5 2 4 4 5 5 4 1 1 3 4 3 4 4 7 14 19 20 21 21 21 19 18 17 16 16 15 15 15 14 14 13 12 12 11 10 9 9 8 8 8 8 8 8 9
14 10 5 4 4 5 6 6 5 3 2 3 1 2 3 4 3 4 9 17 19 19 20 21 22 20 19 18 17 16 16 15 14 14 13 13 12 11 10 10 9 8 8 8 7 8 8 8 8
9 6 5 7 5 4 5 6 5 4 2 2 2 1 3 5 3 7 14 18 19 19 19 21 22 20 19 18 17 16 15 15 14 13 13 12 11 10 10 9 9 8 8 7 7 7 8 8 8
6 5 7 7 4 3 4 5 5 5 3 1 2 1 4 5 7 12 16 18 18 18 17 21 21 19 18 17 16 16 15 14 13 13 12 11 10 10 10 9 9 8 8 8 8 8 8 8 8
5 5 9 7 3 3 4 5 5 5 3 1 1 1 5 7 10 13 16 16 17 17 16 20 20 18 17 16 16 15 14 13 13 12 11 10 10 9 9 9 9 8 8 8 8 8 9 9 9
8 7 10 9 6 3 4 6 6 6 4 2 1 1 6 9 11 13 14 14 15 15 15 16 18 17 16 15 15 14 14 13 12 12 11 11 10 10 10 9 9 9 9 9 9 10 10 11 11
7 6 12 10 8 5 4 6 6 6 3 2 1 1 5 12 14 14 14 13 13 13 13 14 15 15 15 15 15 14 13 13 12 12 11 11 11 11 11 12 12 12 11 11 12 12 12 13 13
5 8 13 10 7 6 6 7 6 4 2 1 1 4 6 16 17 16 14 13 13 13 12 12 13 13 13 13 14 14 13 13 13 13 13 12 12 13 13 15 12 12 13 13 13 14 15 15 16
8 12 13 7 7 9 9 9 7 5 3 0 2 5 10 16 17 17 16 15 15 14 13 11 11 11 11 10 10 11 12 12 13 11 12 12 11 10 11 8 10 13 14 15 16 16 16 16 15
9 12 11 9 9 10 10 8 6 7 3 7 5 3 9 13 15 15 14 14 14 14 13 12 10 9 9 7 7 7 7 8 10 11 11 10 10 10 10 9 10 13 15 14 14 15 15 14 13
11 12 12 12 9 10 10 8 5 6 7 9 5 3 9 12 13 13 13 12 12 12 12 12 11 9 8 7 6 6 6 6 8 10 12 11 8 8 8 8 9 9 9 9 10 10 13 13 14
13 13 11 11 12 10 8 6 3 5 10 8 4 4 6 8 9 9 10 11 11 11 12 11 10 10 9 7 6 7 7 8 9 9 11 12 9 9 8 7 8 10 9 9 9 10 10 11 12
9 10 11 10 9 7 5 2 0 6 8 7 6 5 5 6 7 8 9 9 10 11 11 11 11 9 7 7 6 7 8 7 9 10 12 12 11 9 8 9 8 9 9 9 9 11 10 9 9
9 11 10 4 4 4 6 4 6 8 6 8 9 9 9 8 6 5 5 5 6 6 7 8 8 7 7 6 7 6 7 8 8 9 11 12 12 10 9 9 8 8 9 9 9 10 9 10 10
9 9 8 2 1 2 9 3 9 6 7 9 10 10 10 10 9 6 5 3 3 3 4 4 4 4 4 4 5 6 6 7 7 9 10 12 12 12 9 8 8 8 8 8 8 9 9 9 9
7 6 4 4 5 0 2 4 8 7 8 9 9 10 10 11 11 10 8 6 6 5 4 3 2 1 1 3 4 6 6 6 7 8 10 11 11 12 9 8 7 8 7 7 8 7 7 8 8
1 2 2 2 5 4 6 7 7 7 8 9 9 9 10 10 10 9 9 8 8 7 5 4 2 1 2 2 3 5 6 6 6 7 9 11 10 10 8 7 9 8 7 7 6 7 7 7 7
3 3 0 4 3 3 6 7 7 7 7 8 8 8 9 9 9 9 9 8 7 7 6 4 3 3 2 3 4 4 5 6 6 7 8 9 9 8 7 8 8 7 7 7 8 8 8 8 7
5 4 2 4 4 2 6 7 7 6 7 7 7 8 8 8 8 8 8 7 7 6 5 3 2 2 2 2 3 4 5 4 4 5 5 5 6 6 6 6 6 7 6 7 8 8 7 7 7
6 6 3 3 5 6 6 7 7 7 7 7 7 7 7 7 7 7 7 6 6 5 4 3 3 2 3 4 3 3 3 4 4 4 4 3 3 4 5 7 7 7 7 8 8 8 10 8 7
5 2 3 5 7 4 6 4 8 7 7 7 6 6 6 6 6 6 6 5 5 4 3 2 2 2 3 3 4 4 4 5 5 4 4 4 3 3 4 6 7 7 8 8 8 9 8 8 7
4 2 4 6 7 5 5 5 7 7 6 6 6 5 5 4 4 4 3 3 2 2 1 1 2 2 3 3 3 4 4 4 4 4 4 4 3 3 3 4 5 6 7 8 9 7 9 8 9
1 3 5 7 9 7 1 5 4 4 4 6 5 4 4 3 2 1 0 1 1 2 3 3 3 4 4 4 4 4 4 4 4 4 4 4 3 2 2 3 3 4 5 6 8 8 10 10 9
4 6 6 5 5 1 2 3 6 6 4 3 3 3 3 2 2 2 3 4 5 6 6 6 7 7 7 7 7 7 6 6 6 6 5 5 5 3 2 3 3 3 4 5 6 7 9 10 10
3 6 6 6 5 2 3 1 6 5 4 2 1 2 3 4 4 5 6 7 8 9 9 9 9 10 10 10 10 10 9 9 8 7 7 7 6 5 3 4 4 4 4 5 5 6 8 8 9
3 3 5 7 6 6 1 5 6 4 2 1 2 3 4 5 6 7 8 9 10 11 11 11 12 12 12 13 13 13 12 12 12 10 10 9 7 7 6 6 5 5 5 5 5 5 6 7 8
4 2 4 5 5 5 2 2 3 3 4 3 3 4 5 6 8 9 10 11 11 12 12 12 13 14 14 14 14 14 14 14 13 13 13 12 11 10 10 9 8 8 7 6 6 6 6 6 7
2 2 4 4 5 7 7 2 5 5 5 6 5 5 6 8 10 11 12 12 12 13 14 14 14 15 14 15 15 15 15 15 15 15 15 14 14 13 13 12 11 11 10 9 8 8 7 8 8
5 5 4 5 4 5 8 2 6 4 4 5 6 7 8 10 12 13 14 14 14 15 15 15 15 16 16 16 16 16 16 16 17 17 16 16 16 15 16 15 14 14 13 12 11 11 10 10 10
Wind_Direction
157 165 179 195 233 233 357 34 2 1 6 360 280 248 298 310 321 357 98 152 154 151 148 155 160 162 162 159 156 155 155 156 157 157 158 157 157 158 158 159 159 159 154 145 139 134 131 128 127
162 165 188 221 262 300 64 31 15 13 14 350 231 254 289 338 24 79 130 149 153 150 151 159 158 163 163 161 159 158 159 159 159 159 161 162 163 163 164 165 166 166 162 154 151 146 143 139 138
161 184 225 243 271 341 13 19 6 2 344 302 294 301 332 17 69 113 136 151 152 150 153 153 160 164 165 164 163 163 163 163 162 163 165 166 167 169 170 171 172 174 169 164 162 159 156 153 152
169 203 231 252 279 352 345 348 341 328 324 306 287 101 88 48 73 121 141 153 153 154 156 153 163 166 167 168 167 168 168 167 167 168 170 172 173 176 179 180 182 183 181 177 176 174 170 168 167
217 240 246 250 285 354 345 346 331 314 328 311 281 55 95 82 97 130 147 155 158 158 156 155 165 167 169 171 172 172 172 173 174 175 176 179 181 185 188 190 192 194 194 193 190 188 185 184 183
222 243 261 275 321 344 355 356 321 320 327 258 237 131 101 116 130 143 151 159 161 160 159 153 165 169 171 174 176 177 177 179 180 182 184 188 192 196 200 201 202 204 206 207 206 203 201 200 199
257 260 273 284 295 302 5 347 331 328 317 340 313 131 121 139 141 146 151 163 162 163 161 158 168 173 176 178 181 183 184 185 188 191 194 198 203 207 212 213 214 216 218 218 219 219 216 213 211
265 269 264 266 279 297 355 337 330 319 338 18 257 312 129 151 149 148 154 162 163 167 167 167 172 175 181 184 186 190 192 194 197 201 205 208 213 217 220 223 216 223 227 227 227 227 226 223 220
247 251 262 270 282 298 331 324 329 322 282 212 27 27 95 142 149 151 155 162 167 172 175 176 174 179 188 192 182 193 199 203 206 209 211 216 223 222 216 224 213 223 232 235 235 234 233 231 226
228 253 263 288 292 301 311 313 326 296 264 152 110 101 128 148 157 161 165 169 172 177 181 183 180 183 191 198 185 205 209 205 216 221 216 220 228 237 239 210 214 231 238 240 239 239 239 236 234
231 254 273 275 280 294 296 305 318 309 319 360 343 146 157 163 167 170 173 174 174 178 183 185 185 190 196 199 200 211 221 217 223 228 227 233 236 233 238 235 220 227 235 239 235 233 237 235 233
242 253 264 272 285 287 291 297 309 346 350 353 356 138 165 172 176 175 172 173 173 181 185 187 187 191 201 209 214 222 228 228 233 226 229 229 233 239 239 238 244 239 237 239 244 240 240 241 238
241 255 260 267 273 277 279 278 290 0 1 4 39 117 151 162 165 167 166 169 172 181 186 188 191 192 196 206 226 236 242 242 238 243 235 238 238 238 239 243 246 249 246 240 241 246 248 246 243
261 267 266 270 274 258 240 240 300 13 5 34 61 85 108 126 143 152 161 168 176 184 188 185 189 191 195 210 222 244 252 253 261 251 245 241 243 243 242 242 243 248 251 253 252 250 249 250 249
265 263 246 243 258 210 197 138 40 12 33 60 68 74 78 85 100 118 137 161 172 178 180 187 190 195 200 218 233 247 258 262 260 264 260 250 247 249 246 249 247 249 250 249 249 254 252 249 247
243 238 222 126 354 200 232 179 43 28 62 70 74 79 79 73 72 74 92 115 122 135 154 179 190 195 216 238 257 268 272 273 268 265 262 255 250 248 244 245 248 249 250 248 247 247 248 249 252
217 223 209 127 42 248 222 89 54 46 72 78 79 79 80 74 64 59 64 73 81 88 103 121 126 181 254 275 279 275 270 270 270 266 263 258 253 250 246 243 246 241 239 244 252 243 250 253 255
242 238 187 110 64 86 100 97 75 59 70 77 78 78 75 70 62 59 63 65 71 75 77 76 76 31 331 297 280 276 277 273 268 266 265 265 256 253 252 243 238 234 234 237 241 247 245 258 258
300 285 160 100 108 88 102 99 82 73 76 78 75 76 76 71 66 63 65 68 74 73 68 58 48 27 348 313 298 296 295 288 281 271 272 272 262 252 246 245 238 233 236 239 235 235 236 242 245
246 247 187 130 141 157 131 114 96 79 75 73 78 77 79 82 75 70 70 72 73 75 72 65 47 19 343 332 306 295 300 298 294 288 275 281 278 268 254 250 247 238 240 241 239 231 243 237 227
248 266 262 178 162 175 174 159 137 111 100 94 88 86 83 79 80 80 78 73 67 59 54 46 29 8 354 337 317 312 294 293 303 311 304 304 300 286 272 257 251 243 241 238 236 229 231 236 226
275 302 261 206 218 216 230 241 143 139 129 116 107 100 96 90 88 86 85 77 69 62 59 49 26 3 348 329 341 336 332 328 331 325 328 325 325 300 271 262 252 246 246 248 241 229 229 234 231
331 342 239 233 253 259 230 271 132 152 143 130 125 119 114 112 103 96 86 70 57 41 13 359 344 335 330 328 329 323 331 331 331 330 334 327 334 321 295 278 262 251 250 247 246 235 233 230 235
238 222 218 230 248 250 273 286 126 123 115 128 132 137 141 140 132 130 152 307 306 301 302 307 303 299 300 301 307 306 313 313 321 319 322 319 320 321 325 302 289 272 265 254 246 240 233 238 240
259 272 257 237 241 250 113 268 81 82 87 108 140 163 178 197 219 252 279 291 294 291 294 296 294 290 289 288 287 284 282 282 282 293 305 303 305 302 301 302 294 283 274 268 260 248 246 238 236
310 295 307 308 312 313 186 159 89 84 94 108 167 206 225 240 254 271 283 290 294 295 294 292 290 287 286 283 280 278 275 275 282 277 287 288 287 289 280 267 271 273 270 264 259 259 253 248 243
300 326 337 291 288 286 156 117 116 112 106 211 237 241 253 268 279 286 293 298 301 302 301 299 297 293 289 285 281 275 271 272 278 276 265 270 266 266 251 248 251 253 257 264 265 259 257 257 249
7 335 284 304 317 302 284 168 116 75 6 330 297 289 290 292 296 301 302 305 306 305 304 303 298 295 294 291 286 283 277 272 269 269 271 270 266 259 254 249 244 240 238 238 244 255 254 254 256
2 4 337 317 318 313 317 38 70 30 357 335 319 306 305 306 307 309 309 312 312 311 309 307 304 302 299 296 293 290 285 281 275 269 266 264 262 258 252 247 244 241 237 233 230 238 240 243 249
36 13 343 323 329 313 307 46 90 28 347 329 320 316 313 311 312 314 316 316 314 313 313 311 309 306 304 301 296 291 287 284 280 276 272 268 264 258 253 249 245 244 241 235 233 235 234 233 237
Height
1525 1528 1531 1534 1530 1519 1505 1497 1495 1493 1492 1494 1495 1495 1493 1494 1497 1504 1505 1505 1507 1511 1513 1515 1519 1522 1525 1528 1531 1533 1536 1538 1540 1542 1543 1544 1545 1546 1547 1548 1550 1551 1552 1553 1554 1555 1556 1557 1557
1527 1530 1534 1532 1520 1507 1502 1496 1495 1495 1495 1496 1496 1497 1496 1496 1501 1504 1504 1505 1508 1512 1514 1517 1519 1523 1526 1529 1531 1534 1536 1538 1540 1542 1543 1545 1546 1547 1548 1549 1550 1551 1552 1553 1555 1555 1556 1557 1558
1529 1531 1532 1522 1511 1505 1502 1495 1495 1496 1497 1496 1496 1497 1498 1500 1503 1504 1504 1506 1510 1513 1516 1517 1520 1524 1527 1529 1532 1535 1537 1539 1541 1542 1544 1545 1546 1547 1548 1550 1551 1552 1553 1554 1555 1556 1557 1558 1558
1530 1532 1528 1517 1504 1498 1498 1495 1495 1495 1496 1497 1496 1497 1501 1504 1505 1505 1504 1508 1511 1515 1518 1519 1522 1525 1527 1530 1533 1535 1537 1539 1541 1542 1544 1545 1546 1548 1549 1550 1551 1552 1553 1554 1555 1556 1557 1558 1558
1530 1527 1516 1506 1499 1496 1495 1496 1496 1493 1495 1496 1496 1496 1501 1505 1504 1505 1507 1510 1514 1517 1520 1520 1523 1526 1528 1531 1534 1536 1538 1540 1541 1543 1544 1545 1546 1547 1548 1550 1551 1552 1553 1554 1555 1556 1557 1557 1558
1528 1520 1510 1502 1497 1496 1495 1496 1495 1493 1494 1495 1496 1496 1502 1505 1506 1507 1510 1513 1516 1519 1521 1521 1523 1526 1529 1532 1534 1536 1538 1540 1541 1543 1544 1545 1546 1547 1548 1549 1550 1551 1552 1553 1554 1555 1556 1557 1557
1524 1513 1505 1501 1498 1496 1495 1496 1495 1493 1493 1494 1496 1495 1502 1506 1507 1509 1511 1514 1518 1521 1523 1523 1525 1527 1530 1532 1534 1536 1538 1539 1541 1542 1543 1544 1545 1546 1547 1548 1549 1550 1551 1552 1553 1553 1554 1555 1556
1522 1513 1503 1498 1499 1496 1495 1496 1495 1494 1493 1496 1497 1495 1500 1505 1506 1509 1512 1515 1518 1521 1523 1525 1527 1528 1530 1532 1534 1536 1537 1539 1540 1541 1542 1543 1544 1545 1546 1547 1547 1548 1549 1550 1551 1552 1552 1553 1554
1522 1514 1502 1496 1496 1494 1494 1494 1494 1495 1495 1496 1498 1499 1501 1503 1506 1508 1511 1514 1517 1520 1523 1525 1527 1529 1531 1534 1534 1535 1536 1537 1539 1540 1541 1541 1543 1545 1545 1545 1546 1546 1547 1548 1548 1549 1550 1551 1551
1517 1507 1498 1495 1496 1495 1495 1494 1494 1493 1492 1495 1498 1500 1501 1502 1504 1507 1509 1513 1515 1518 1521 1524 1526 1528 1531 1534 1534 1535 1537 1537 1537 1539 1540 1540 1541 1543 1544 1544 1543 1544 1544 1545 1546 1547 1547 1548 1549
1509 1504 1498 1498 1498 1498 1495 1494 1494 1493 1491 1496 1498 1500 1502 1503 1505 1507 1510 1512 1514 1516 1519 1522 1525 1526 1530 1532 1533 1534 1536 1536 1536 1537 1537 1538 1539 1539 1540 1541 1541 1541 1541 1542 1543 1543 1544 1545 1545
1506 1502 1501 1499 1498 1498 1496 1495 1495 1496 1498 1500 1499 1499 1501 1503 1505 1507 1509 1512 1514 1516 1519 1521 1523 1525 1527 1529 1531 1532 1533 1534 1534 1534 1534 1535 1535 1536 1537 1537 1538 1538 1538 1538 1539 1540 1540 1541 1541
1504 1500 1499 1498 1498 1497 1496 1496 1497 1500 1501 1500 1500 1500 1501 1502 1505 1507 1509 1511 1513 1515 1517 1519 1520 1522 1523 1525 1527 1529 1530 1531 1531 1531 1531 1531 1532 1532 1533 1533 1533 1534 1535 1535 1535 1536 1536 1536 1537
1499 1498 1497 1496 1495 1495 1495 1496 1498 1502 1503 1501 1501 1501 1502 1504 1505 1507 1509 1510 1512 1513 1515 1517 1518 1519 1520 1522 1523 1525 1526 1526 1527 1527 1527 1527 1527 1528 1528 1528 1528 1530 1530 1531 1532 1532 1532 1532 1533
1501 1497 1492 1492 1492 1492 1493 1496 1503 1506 1504 1503 1503 1503 1504 1505 1506 1507 1509 1510 1512 1513 1514 1515 1516 1517 1518 1519 1520 1521 1521 1521 1522 1522 1521 1521 1522 1522 1523 1523 1524 1525 1526 1526 1527 1527 1528 1528 1529
1495 1492 1489 1490 1490 1491 1492 1495 1506 1506 1505 1506 1506 1507 1507 1507 1508 1508 1509 1510 1511 1512 1513 1514 1515 1515 1515 1516 1516 1517 1516 1516 1516 1516 1516 1515 1516 1516 1517 1518 1519 1520 1521 1522 1523 1523 1524 1524 1525
1489 1488 1488 1489 1491 1490 1488 1499 1508 1508 1507 1508 1509 1509 1510 1510 1510 1509 1509 1510 1510 1511 1512 1513 1513 1514 1514 1514 1513 1514 1512 1511 1510 1510 1509 1509 1509 1510 1510 1512 1513 1515 1516 1517 1518 1519 1520 1520 1521
1489 1486 1488 1491 1493 1492 1494 1504 1509 1510 1510 1510 1511 1512 1512 1512 1512 1511 1510 1511 1510 1511 1512 1513 1513 1513 1512 1512 1511 1510 1510 1507 1505 1504 1503 1502 1502 1503 1504 1505 1507 1509 1511 1512 1513 1514 1515 1516 1517
1489 1488 1490 1493 1496 1496 1500 1506 1510 1512 1512 1513 1514 1514 1514 1514 1514 1513 1512 1512 1512 1512 1513 1513 1513 1512 1511 1511 1510 1509 1506 1503 1500 1499 1498 1497 1496 1497 1499 1500 1501 1503 1506 1507 1509 1510 1511 1512 1513
1489 1490 1491 1495 1496 1496 1502 1507 1510 1513 1514 1515 1516 1516 1516 1516 1516 1515 1515 1514 1514 1514 1514 1514 1513 1512 1511 1509 1508 1506 1503 1500 1498 1497 1494 1494 1493 1493 1495 1496 1497 1499 1501 1502 1504 1505 1507 1509 1510
1487 1487 1487 1492 1496 1495 1498 1504 1508 1512 1514 1516 1517 1517 1517 1517 1517 1517 1516 1516 1516 1515 1514 1514 1512 1511 1509 1508 1507 1505 1502 1500 1498 1496 1494 1492 1492 1492 1493 1493 1495 1496 1497 1499 1500 1501 1503 1505 1506
1488 1483 1486 1490 1494 1491 1494 1499 1503 1506 1510 1514 1517 1518 1518 1518 1518 1518 1517 1517 1516 1515 1514 1513 1512 1510 1509 1507 1506 1504 1502 1500 1497 1495 1493 1491 1490 1490 1491 1491 1491 1492 1494 1495 1496 1498 1499 1501 1503
1487 1486 1486 1487 1488 1489 1489 1493 1499 1501 1506 1511 1515 1518 1519 1519 1519 1518 1518 1517 1516 1515 1514 1513 1511 1509 1508 1506 1504 1502 1501 1498 1496 1494 1492 1490 1488 1488 1487 1487 1488 1489 1490 1491 1493 1494 1495 1497 1499
1488 1488 1487 1485 1484 1496 1492 1496 1500 1499 1504 1508 1514 1517 1518 1519 1518 1518 1517 1517 1516 1514 1513 1512 1510 1508 1506 1504 1502 1500 1498 1496 1494 1492 1491 1489 1487 1486 1485 1484 1484 1485 1486 1487 1488 1489 1491 1493 1494
1487 1491 1497 1499 1498 1498 1492 1494 1505 1503 1506 1509 1513 1515 1517 1518 1517 1517 1517 1516 1514 1513 1512 1510 1508 1505 1503 1501 1499 1498 1496 1494 1492 1490 1489 1487 1485 1484 1482 1481 1480 1480 1481 1482 1483 1484 1486 1487 1489
1488 1489 1500 1508 1503 1494 1492 1496 1505 1507 1510 1512 1514 1515 1516 1516 1516 1516 1515 1514 1513 1511 1509 1507 1505 1502 1500 1498 1496 1494 1492 1491 1490 1487 1485 1484 1482 1481 1479 1478 1477 1476 1476 1477 1477 1479 1480 1482 1483
1488 1487 1488 1492 1492 1497 1492 1499 1507 1508 1509 1511 1512 1513 1514 1514 1514 1513 1513 1511 1510 1508 1506 1504 1501 1499 1496 1494 1491 1489 1487 1486 1484 1482 1481 1480 1478 1477 1476 1474 1473 1472 1472 1472 1472 1473 1474 1475 1477
1489 1489 1489 1494 1506 1507 1497 1499 1507 1507 1508 1508 1509 1510 1512 1512 1512 1511 1510 1508 1507 1504 1502 1500 1497 1494 1492 1489 1487 1485 1482 1480 1478 1477 1476 1474 1473 1472 1471 1470 1469 1468 1468 1467 1467 1468 1468 1469 1470
1492 1492 1492 1492 1496 1505 1507 1506 1503 1507 1508 1508 1508 1510 1510 1510 1509 1508 1507 1505 1503 1500 1498 1495 1492 1489 1486 1483 1480 1478 1476 1474 1472 1470 1469 1468 1467 1466 1465 1465 1464 1464 1463 1463 1463 1463 1463 1463 1464
1495 1497 1496 1502 1503 1501 1502 1505 1505 1507 1508 1509 1508 1509 1509 1509 1507 1505 1503 1501 1499 1496 1493 1489 1486 1483 1480 1477 1474 1471 1469 1467 1465 1463 1462 1460 1459 1459 1458 1458 1458 1458 1458 1458 1458 1458 1458 1458 1459